Total_Precipitation_Accumulation
1.00 0.93 1.01 0.79 0.65 0.67 0.57 0.57 0.49 0.46 0.37 0.40 0.39 0.34 0.31 0.31 0.32 0.35 0.45 0.65 0.57 0.41 0.49 0.55 0.67 0.78 0.83 1.02 1.06 0.95 0.70 0.49 0.49 0.71 0.93 1.08 0.68 0.47 0.32 0.27 0.27 0.23 0.23
1.35 1.52 1.67 1.93 1.60 0.96 0.76 0.83 0.78 0.81 0.78 0.77 0.65 0.52 0.37 0.33 0.35 0.40 0.40 0.43 0.70 0.61 0.50 0.68 0.77 0.92 1.04 1.30 1.59 1.66 1.62 1.28 1.17 1.21 1.30 0.92 0.70 0.59 0.44 0.36 0.35 0.39 0.36
1.05 1.41 1.99 1.93 1.96 1.87 1.44 1.25 1.41 1.50 1.14 1.00 0.83 0.85 0.80 0.67 0.54 0.40 0.35 0.29 0.35 0.51 0.57 0.47 0.53 0.88 1.20 1.65 2.09 2.58 2.88 2.86 2.72 2.38 1.69 1.21 1.23 1.20 0.94 0.90 0.97 0.89 0.52
0.91 1.11 1.21 1.39 1.41 1.31 1.33 1.16 0.97 1.00 0.97 0.86 0.68 0.47 0.36 0.36 0.28 0.23 0.22 0.22 0.35 0.46 0.71 0.83 0.67 0.86 1.11 1.22 1.43 1.74 2.29 2.68 2.88 2.81 3.03 3.33 2.93 2.30 2.18 2.11 1.85 1.74 1.66
0.52 0.47 0.52 0.63 0.84 0.87 0.91 0.93 0.84 0.83 0.78 0.74 0.53 0.40 0.34 0.27 0.20 0.26 0.29 0.34 0.41 0.44 0.45 0.85 1.08 1.09 1.07 0.98 0.91 1.22 1.43 1.62 1.85 2.01 2.25 2.29 1.99 1.88 1.98 2.17 2.26 2.04 1.81
0.88 0.80 0.61 0.54 0.42 0.40 0.44 0.42 0.46 0.56 0.63 0.50 0.35 0.31 0.34 0.32 0.28 0.31 0.35 0.39 0.32 0.30 0.27 0.31 0.42 0.42 0.51 0.67 0.85 0.94 0.96 1.02 1.18 1.10 1.03 1.07 1.13 1.06 1.16 1.38 1.49 1.66 1.76
1.07 1.00 0.83 0.69 0.52 0.34 0.26 0.26 0.34 0.53 0.74 0.71 0.63 0.48 0.32 0.22 0.24 0.29 0.31 0.32 0.31 0.28 0.28 0.26 0.25 0.29 0.34 0.42 0.59 0.74 0.73 0.70 0.77 0.86 0.92 0.92 0.85 0.78 0.89 1.05 1.19 1.37 1.59
1.29 1.05 0.89 0.88 0.75 0.68 0.60 0.60 0.53 0.56 0.60 0.77 0.76 0.61 0.51 0.43 0.36 0.20 0.16 0.19 0.23 0.27 0.31 0.33 0.33 0.26 0.25 0.25 0.32 0.53 0.62 0.56 0.52 0.77 0.84 0.81 1.02 1.25 1.40 1.41 1.14 0.88 0.82
1.46 1.65 1.97 1.65 1.14 1.16 1.26 1.30 1.36 1.34 1.14 0.92 0.81 0.87 0.61 0.42 0.32 0.36 0.25 0.21 0.21 0.21 0.23 0.30 0.32 0.28 0.23 0.25 0.25 0.30 0.49 0.76 0.84 0.84 0.97 1.01 1.10 1.10 1.02 1.02 1.04 0.96 0.87
1.72 1.88 2.22 2.82 3.28 2.84 2.01 1.71 1.57 1.43 1.53 1.39 1.35 1.09 0.91 0.65 0.49 0.35 0.25 0.29 0.35 0.38 0.34 0.36 0.43 0.45 0.45 0.45 0.52 0.60 0.62 0.60 0.76 1.01 1.36 1.47 1.66 1.64 1.38 1.16 1.11 1.12 1.09
2.09 1.89 1.93 2.04 2.04 2.23 2.70 2.47 2.01 1.90 1.79 1.55 1.30 1.07 0.97 0.92 0.93 0.82 0.46 0.27 0.29 0.35 0.41 0.42 0.41 0.53 0.72 0.85 0.85 0.79 0.98 1.05 0.89 1.20 1.58 1.83 1.77 1.86 2.14 2.29 2.17 1.85 1.65
1.85 1.74 1.58 1.49 1.50 1.53 1.63 1.99 2.01 1.74 1.66 1.72 1.68 1.57 1.30 1.21 1.00 1.13 1.04 0.67 0.58 0.44 0.38 0.37 0.40 0.42 0.57 0.82 1.00 1.06 0.97 0.96 1.07 1.34 1.56 1.89 2.03 1.95 2.04 2.22 2.31 2.17 2.09
1.76 1.68 1.56 1.60 1.51 1.52 1.56 1.64 1.77 1.70 1.53 1.41 1.37 1.42 1.61 1.63 1.55 1.56 1.55 1.16 0.83 0.54 0.48 0.32 0.24 0.31 0.39 0.41 0.50 0.88 0.98 1.00 1.12 1.42 1.68 2.10 2.21 2.03 1.97 2.33 3.10 3.57 3.78
1.56 1.90 1.82 1.79 1.87 1.85 1.83 1.85 1.87 1.88 1.79 1.72 1.74 1.68 1.62 1.64 1.83 1.97 2.04 2.09 1.93 1.21 0.76 0.55 0.44 0.55 0.64 0.72 0.91 1.10 0.84 1.00 1.01 1.17 1.65 2.17 2.69 2.91 2.72 2.55 2.62 2.81 3.29
1.22 1.34 1.47 1.39 1.41 1.44 1.41 1.49 1.50 1.45 1.59 1.67 1.58 1.51 1.51 1.37 1.42 1.59 1.90 2.33 2.97 2.66 1.62 1.00 0.97 1.00 1.09 1.19 1.42 1.29 1.16 1.50 1.47 1.41 1.42 1.46 1.45 1.62 1.73 1.98 2.27 2.35 2.81
0.61 0.72 0.85 0.91 0.98 1.06 1.21 1.31 1.32 1.39 1.52 1.58 1.64 1.72 1.71 1.67 1.66 1.51 1.49 1.72 2.06 2.53 2.33 1.29 1.18 1.17 1.36 1.63 2.11 2.00 1.90 2.21 1.78 1.55 1.44 1.15 1.02 0.95 1.01 1.07 1.02 1.01 1.32
0.16 0.18 0.18 0.27 0.35 0.40 0.54 0.76 0.92 1.10 1.31 1.53 1.85 2.12 2.26 2.34 2.49 2.47 2.58 2.75 2.91 3.13 3.17 2.07 1.64 1.50 1.52 1.57 1.55 1.41 1.43 1.34 1.42 1.69 1.56 1.39 1.18 0.99 0.86 0.83 0.86 0.77 0.70
0.20 0.19 0.18 0.20 0.25 0.27 0.28 0.27 0.33 0.41 0.51 0.63 0.86 1.11 1.21 1.34 1.58 1.67 1.89 2.08 2.44 2.91 3.44 2.71 2.01 1.88 1.77 1.63 1.43 1.17 1.08 1.14 1.20 1.68 1.63 1.53 1.32 1.17 1.16 1.16 1.00 0.88 0.81
0.39 0.58 0.41 0.34 0.31 0.28 0.24 0.27 0.32 0.42 0.54 0.65 0.75 0.81 0.93 1.02 1.04 1.04 1.09 1.18 1.26 1.41 1.70 1.66 1.28 1.12 1.15 1.33 1.50 1.46 1.32 1.26 1.21 1.68 1.49 1.53 1.52 1.34 1.16 1.07 1.11 1.16 1.17
0.47 0.64 1.03 0.63 0.57 0.55 0.47 0.36 0.36 0.37 0.44 0.60 0.62 0.68 0.71 0.86 1.00 1.13 1.44 1.64 1.54 1.46 1.29 1.09 0.96 0.88 0.80 0.80 0.93 1.00 1.00 0.91 0.79 0.78 0.96 0.96 1.04 1.01 1.02 1.01 0.93 0.93 1.06
0.67 0.59 0.62 0.66 0.57 0.50 0.68 0.59 0.48 0.53 0.50 0.71 1.02 1.01 1.13 1.18 1.28 1.22 1.06 0.97 1.10 1.11 1.18 1.27 1.08 0.86 0.77 0.69 0.68 0.72 0.78 0.84 0.85 0.82 0.69 0.62 0.55 0.51 0.60 0.74 0.83 0.93 0.93
0.85 0.65 0.66 0.58 0.53 0.61 1.13 1.08 0.87 0.82 0.85 0.78 1.16 1.30 1.29 1.53 1.17 1.20 1.18 1.11 1.04 1.01 0.87 0.71 0.66 0.65 0.69 0.74 0.77 0.83 0.93 1.04 1.00 0.70 0.70 0.67 0.61 0.54 0.46 0.45 0.68 0.72 0.80
0.74 0.75 0.69 0.78 0.69 0.78 1.18 1.26 1.10 0.72 0.87 0.99 0.82 0.82 0.63 0.65 0.71 0.60 0.72 0.69 0.64 0.57 0.52 0.54 0.47 0.39 0.36 0.37 0.50 0.62 0.65 0.70 0.62 0.51 0.65 0.73 0.63 0.58 0.45 0.45 0.47 0.40 0.47
0.63 0.67 0.69 0.88 0.99 1.24 1.21 1.17 1.04 0.59 0.53 0.66 0.47 0.37 0.30 0.27 0.32 0.31 0.34 0.39 0.42 0.40 0.40 0.37 0.35 0.35 0.35 0.38 0.47 0.64 0.59 0.59 0.47 0.33 0.30 0.41 0.28 0.32 0.25 0.26 0.34 0.32 0.35
1.02 1.06 0.94 0.91 0.96 1.22 1.09 1.14 0.72 0.51 0.37 0.29 0.19 0.14 0.15 0.12 0.20 0.23 0.18 0.21 0.24 0.23 0.39 0.47 0.55 0.63 0.65 0.60 0.48 0.48 0.58 0.60 0.47 0.18 0.10 0.17 0.12 0.16 0.17 0.18 0.20 0.30 0.32
1.05 1.03 0.94 0.85 0.82 0.72 0.71 0.73 0.62 0.35 0.16 0.12 0.05 0.06 0.11 0.13 0.19 0.15 0.12 0.07 0.10 0.03 0.06 0.09 0.11 0.19 0.28 0.33 0.39 0.31 0.28 0.57 0.54 0.63 0.30 0.47 0.27 0.24 0.54 0.16 0.15 0.22 0.25